Weather in Shauljaj

Lithuania     55˚55′58″N   23˚19′03″E
temp.,
°C
wind,
m/s
gust,
m/s
humid.,
%
clouds,
%
prec.,
mm/h
press.,
hPa
HPBL,
m
30 november, mon
mon3023:00−2˚nne479491 0.3 1022418
02:00−2˚n349089 0.3 1021397
05:00−1˚n238598 0.0 1020341
08:00−1˚wnw229098 0.1 1020169
11:00wsw249196 0.0 1020274
14:00w349398 0.3 1020354
17:00−1˚sw3697100 0.5 1019337
20:00−1˚ssw4894100 0.9 1020358
1 december, tue
tue123:00−1˚sw599589 0.0 1020387
02:00ssw598795 0.0 1020472
05:00−1˚ssw599573 0.0 1021390
08:00−1˚ssw589086 0.0 1022503
11:00ssw5787100 0.0 1024525
14:00s468498 0.0 1025503
17:00−1˚s468697 0.0 1026595
20:00s368398 0.0 1028465
2 december, wed
wed223:00−1˚sse368894 0.0 1029301
02:00−2˚sse368987 0.0 1030224
05:00−3˚sse3690100 0.0 1029223
08:00−3˚sse369093 0.0 1029252
11:00−2˚sse4683100 0.0 1030286
14:00−1˚sse477994 0.0 1028370
17:00−3˚se4786100 0.0 1027287
20:00−3˚se498699 0.0 1026308
3 december, thu
thu323:00−3˚se4987100 0.0 1025297
02:00−3˚sse5993100 0.0 1024378
05:00−2˚sse5992100 0.1 1023545
08:00−2˚se5882100 0.1 1022749
11:00−1˚sse5880100 0.0 1021863
14:00−1˚sse5882100 0.1 1020763
17:00−2˚se5989100 0.0 1020561
20:00−1˚sse5988100 0.1 1019681
4 december, fri
fri423:00−1˚sse5108994 0.0 1019641
02:00se5108897 0.0 1018716
05:00−1˚se5129097 0.0 1017575
08:00se7139093 0.0 1016624
11:00+1˚se71384100 0.0 1016600
14:00+1˚se71385100 0.0 1015605
17:00+1˚se7148899 0.0 1014663
20:00+2˚se6149199 0.0 1014684